Flight Track Log - Related Links

Times and Time Zones

All times are in EDT time to prevent confusion due to time zone crossing. See the N917MM flight status page for this flight to view local times or setup timezone preferences in your user account.

Time Position Orientation Groundspeed Altitude Reporting Facility
EDT Latitude Longitude Course Direction KTS MPH feet Rate Location/Type
Fri 09:02:08 PM 42.4667 -71.3167 246° West 138 159 1,400  Level Boston TRACON
Fri 09:03:02 PM 42.4500 -71.3667 194° South 199 229 3,100 2,333 Climbing Boston TRACON
Fri 09:03:56 PM 42.4000 -71.3833 135° Southeast 217 250 5,600 2,053 Climbing Boston TRACON
Fri 09:04:56 PM 42.3500 -71.3167 151° Southeast 275 316 7,000 700 Climbing Boston TRACON
Fri 09:05:56 PM 42.2833 -71.2667 135° Southeast 259 298 7,000  Level Boston TRACON
Fri 09:06:56 PM 42.2333 -71.2000 135° Southeast 255 293 7,000  Level Boston TRACON
Fri 09:07:56 PM 42.1833 -71.1333 135° Southeast 257 296 7,000  Level Boston TRACON
Fri 09:08:56 PM 42.1333 -71.0667 46° Northeast 261 300 7,000  Level Boston TRACON
Fri 09:16:02 PM 42.2992 -70.8335 149° Southeast  Level FlightAware Approximate
Fri 09:17:02 PM 42.2460 -70.7896 149° Southeast  Level FlightAware Approximate
Fri 09:18:02 PM 42.1928 -70.7458 149° Southeast  Level FlightAware Approximate
Fri 09:19:02 PM 42.1396 -70.7021 149° Southeast  Level FlightAware Approximate
Fri 09:20:02 PM 42.0864 -70.6584 149° Southeast  Level FlightAware Approximate
Fri 09:21:02 PM 42.0331 -70.6148 149° Southeast  Level FlightAware Approximate
Fri 09:22:02 PM 41.9798 -70.5713 149° Southeast  Level FlightAware Approximate
Fri 09:23:02 PM 41.9266 -70.5279 149° Southeast  Level FlightAware Approximate
Fri 09:24:02 PM 41.8732 -70.4845 149° Southeast  Level FlightAware Approximate
Fri 09:25:02 PM 41.8199 -70.4412 149° Southeast  Level FlightAware Approximate
Fri 09:26:02 PM 41.7666 -70.3980 149° Southeast  Level FlightAware Approximate
Fri 09:27:02 PM 41.7132 -70.3548 149° Southeast  Level FlightAware Approximate
Fri 09:28:02 PM 41.6599 -70.3118 149° Southeast  Level FlightAware Approximate
Fri 09:29:02 PM 41.6065 -70.2687 149° Southeast  Level FlightAware Approximate
Fri 09:30:02 PM 41.5531 -70.2258 149° Southeast  Level FlightAware Approximate
Fri 09:31:02 PM 41.4997 -70.1829 149° Southeast  Level FlightAware Approximate
Fri 09:32:02 PM 41.4462 -70.1401 149° Southeast  Level FlightAware Approximate
Fri 09:33:02 PM 41.3928 -70.0974 149° Southeast  Level FlightAware Approximate
Fri 09:34:02 PM 41.3393 -70.0548 149° Southeast  Level FlightAware Approximate

Login

Don't have an account? Register now (free) for customized features, flight alerts, and more!